Zurück zum Katalog

NOAA 16 DEB

AktivPO
NORAD 41230·DEBRIS·🇺🇸 United States

Gestartet Sep 21, 2000 von Vandenberg Space Force Base

Loading…

Nächste Überflüge (nächste 24 Stunden)

TLE

AktuellSource: Space-Track

Epoche: Sep 14, 2026, 11:20 UTC

1 41230U 00055EK  26257.47273143  .00003807  00000-0  93133-3 0  9993
2 41230  98.9894 135.3624 0025309 195.6693 164.3720 14.52980563560907

Verfolge NOAA 16 DEB in Echtzeit mit AllMySat

Download on the App Store